TimeCDT,TemperatureF,Dew PointF,Humidity,Sea Level PressureIn,VisibilityMPH,Wind Direction,Wind SpeedMPH,Gust SpeedMPH,PrecipitationIn,Events,Conditions,WindDirDegrees,DateUTC
12:53 AM,53.1,46.0,77,29.90,10.0,Calm,Calm,-,N/A,,Clear,0,2013-04-12 05:53:00
1:53 AM,53.1,46.0,77,29.92,10.0,Calm,Calm,-,N/A,,Clear,0,2013-04-12 06:53:00
2:53 AM,52.0,46.0,80,29.91,10.0,North,5.8,-,N/A,,Clear,350,2013-04-12 07:53:00
3:53 AM,54.0,45.0,72,29.92,10.0,Calm,Calm,-,N/A,,Clear,0,2013-04-12 08:53:00
4:53 AM,51.1,45.0,80,29.92,10.0,Calm,Calm,-,N/A,,Clear,0,2013-04-12 09:53:00
5:53 AM,48.9,46.0,90,29.94,10.0,Calm,Calm,-,N/A,,Clear,0,2013-04-12 10:53:00
6:53 AM,50.0,44.1,80,29.95,10.0,Calm,Calm,-,N/A,,Partly Cloudy,0,2013-04-12 11:53:00
7:53 AM,53.1,46.9,80,29.98,10.0,NNE,3.5,-,N/A,,Partly Cloudy,30,2013-04-12 12:53:00
8:53 AM,60.1,48.0,64,30.01,10.0,Calm,Calm,-,N/A,,Partly Cloudy,0,2013-04-12 13:53:00
9:53 AM,64.9,48.0,54,30.03,10.0,East,3.5,-,N/A,,Partly Cloudy,90,2013-04-12 14:53:00
10:53 AM,69.1,46.0,44,30.03,10.0,Variable,3.5,-,N/A,,Scattered Clouds,0,2013-04-12 15:53:00
11:53 AM,72.0,45.0,38,30.03,10.0,Variable,3.5,-,N/A,,Scattered Clouds,0,2013-04-12 16:53:00
12:53 PM,73.9,43.0,33,30.01,10.0,Calm,Calm,-,N/A,,Scattered Clouds,0,2013-04-12 17:53:00
1:53 PM,75.9,43.0,31,29.99,10.0,ESE,3.5,-,N/A,,Partly Cloudy,110,2013-04-12 18:53:00
2:53 PM,77.0,43.0,30,29.96,10.0,ENE,3.5,-,N/A,,Scattered Clouds,70,2013-04-12 19:53:00
3:53 PM,78.1,43.0,29,29.93,10.0,Variable,4.6,-,N/A,,Scattered Clouds,0,2013-04-12 20:53:00
4:53 PM,75.9,45.0,33,29.92,10.0,East,11.5,17.3,N/A,,Mostly Cloudy,90,2013-04-12 21:53:00
5:53 PM,75.0,46.0,36,29.91,10.0,East,11.5,-,N/A,,Mostly Cloudy,100,2013-04-12 22:53:00
6:53 PM,73.0,44.1,35,29.91,10.0,ESE,8.1,-,N/A,,Mostly Cloudy,120,2013-04-12 23:53:00
7:53 PM,69.1,48.0,47,29.92,10.0,SE,4.6,-,N/A,,Mostly Cloudy,130,2013-04-13 00:53:00
8:53 PM,66.0,50.0,56,29.94,10.0,SE,5.8,-,N/A,,Scattered Clouds,130,2013-04-13 01:53:00
9:53 PM,63.0,53.1,70,29.95,10.0,SE,5.8,-,N/A,,Partly Cloudy,140,2013-04-13 02:53:00
10:53 PM,61.0,53.1,75,29.97,10.0,South,4.6,-,N/A,,Partly Cloudy,170,2013-04-13 03:53:00
11:53 PM,59.0,53.1,81,29.98,10.0,Calm,Calm,-,N/A,,Partly Cloudy,0,2013-04-13 04:53:00